Regional Weather Roundup
Issued by NWS

Home | Current Version | Previous Version | Graphics & Text | Print | Product List | Glossary On
Versions: 1 2 3 4 5 6 7 8 9 10 11 12 13 14 15 16 17 18 19 20 21 22 23 24 25 26 27 28 29 30 31 32 33 34 35 36 37 38 39 40 41 42 43 44 45 46 47 48 49 50
000
ASUS45 KPSR 300900
RWRAZ

PRELIMINARY ARIZONA REGIONAL HOURLY WEATHER ROUNDUP
NATIONAL WEATHER SERVICE PHOENIX AZ
200 AM MST WED JUL 30 2014

NOTE: FAIR INDICATES FEW OR NO CLOUDS BELOW 12,000 FEET WITH NO
SIGNIFICANT WEATHER AND/OR OBSTRUCTIONS TO VISIBILITY.

AZZ001>003-036-301000-
NORTHWEST ARIZONA

CITY           SKY/WX    TMP DP  RH WIND       PRES   REMARKS
KINGMAN        NOT AVBL
$$

AZZ004>008-015-016-018-301000-
NORTH CENTRAL ARIZONA

CITY           SKY/WX    TMP DP  RH WIND       PRES   REMARKS
GRAND CANYON   CLEAR     54  49  83 CALM      30.31S
WILLIAMS       CLEAR     57  50  77 CALM      30.38S
PRESCOTT       CLEAR     68  52  56 S6        30.19S
FLAGSTAFF      CLEAR     62  47  57 CALM      30.34F
PAYSON         CLEAR     70  52  52 CALM      30.21S
PAGE           CLEAR     77  51  40 CALM      30.12S
$$

AZZ009>014-017-301000-
NORTHEAST ARIZONA

CITY           SKY/WX    TMP DP  RH WIND       PRES   REMARKS
WINSLOW        NOT AVBL
SAINT JOHNS    PTCLDY    70  51  51 SW10      30.23S
WINDOW ROCK    MOCLDY    66  51  58 CALM      30.31F
$$

AZZ023-301000-
GREATER PHOENIX AREA

CITY           SKY/WX    TMP DP  RH WIND       PRES   REMARKS
PHOENIX        CLEAR     97  53  22 W7        29.83F
BUCKEYE          N/A     86  54  32 N3        29.85S
DEER VALLEY    CLEAR     90  56  31 NE3       29.86F
MESA-GATEWAY     N/A    N/A N/A N/A MISG        N/A
$$

AZZ027-028-301000-
SOUTHWEST MARICOPA COUNTY AND PINAL COUNTY

CITY           SKY/WX    TMP DP  RH WIND       PRES   REMARKS
CASA GRANDE    CLEAR     86  54  32 CALM      29.89S
$$

AZZ503-504-507>509-301000-
SOUTHEAST ARIZONA

CITY           SKY/WX    TMP DP  RH WIND       PRES   REMARKS
TUCSON         NOT AVBL
DAVIS-MONTHAN  CLEAR     82  56  42 SW2       30.00R
SIERRA VISTA   PTCLDY    73  55  53 W10       30.17S
SAFFORD        CLEAR     78  60  53 CALM      30.00F
$$

AZZ020-021-025-026-031-301000-
SOUTHWEST ARIZONA

CITY           SKY/WX    TMP DP  RH WIND       PRES   REMARKS
YUMA           CLEAR     92  56  29 SW8       29.81F
$$

CAZ031-033-041-043-047-048-061-301000-
SOUTHERN CALIFORNIA

CITY           SKY/WX    TMP DP  RH WIND       PRES   REMARKS
DOWNTOWN L.A.  PTCLDY    70  62  76 CALM      29.95F
L.A. AIRPORT   MOCLDY    68  61  78 SW6       29.96S
SAN DIEGO      MOCLDY    72  67  84 N3        29.96F
BURBANK        PTCLDY    72  58  61 E5        29.96S
ONTARIO        PTCLDY    74  55  51 W3        29.96F
RIVERSIDE      CLEAR     73  54  51 W3        29.97S
PALM SPRINGS   CLEAR     91  52  26 SE5       29.84S
EL CENTRO NAS  CLEAR     88  50  27 SW8       29.79S
IMPERIAL       CLEAR     86  51  29 W7        29.79S
BLYTHE           N/A    N/A N/A N/A MISG      29.79S
$$

NVZ020-UTZ003-301000-
SOUTHERN NEVADA-UTAH

CITY           SKY/WX    TMP DP  RH WIND       PRES   REMARKS
LAS VEGAS      NOT AVBL
SALT LAKE CITY LGT RAIN  66  62  87 SE5       30.17R
$$

NMZ009-TXZ055-301000-
NEW MEXICO-WEST TEXAS

CITY           SKY/WX    TMP DP  RH WIND       PRES   REMARKS
ALBUQUERQUE    MOCLDY    68  61  78 NE12      30.21S
EL PASO        PTCLDY    77  67  71 N3        30.06F
$$


........................KEY........................
SKY/WX - SKY CONDITION/WEATHER
TMP    - TEMPERATURE IN FAHRENHEIT
DP     - DEW POINT IN FAHRENHEIT
RH     - RELATIVE HUMIDITY IN PERCENT
WIND   - DIRECTION AND SPEED IN MILES PER HOUR (MPH)
VRB    - VARIABLE WIND DIRECTION
PRES   - MEAN SEA LEVEL PRESSURE IN INCHES OF MERCURY
         F - FALLING PRESSURE   R - RISING PRESSURE
         S - STEADY PRESSURE
VSB    - VISIBILITY IN MILES
HX     - HEAT INDEX IN FAHRENHEIT
WCI    - WIND CHILL INDEX IN FAHRENHEIT
TC     - TEMPERATURE IN CELSIUS WHICH IS ALSO KNOWN AS
         TEMPERATURE IN CENTIGRADE
AFB    - AIR FORCE BASE
         LUKE AFB IS LUKE AIR FORCE BASE
         DAVIS-MONTHAN IS DAVIS-MONTHAN AIR FORCE BASE
NAS    - NAVAL AIR STATION
         EL CENTRO NAS IS EL CENTRO NAVAL AIR STATION
N/A    - NOT AVAILABLE



USA.gov is the U.S. government's official web portal to all federal, state and local government web resources and services.